Location: Falniów
(50.3639°N, 19.9642°E)
Time: 23:53:29
(UTC+00:00)

Cosmos 2251 Rocket - Pass Details

Date: 18 January 2026
Orbit: 762 x 787 km, 74.0° (Epoch: 16 February)

Event Time Altitude Azimuth Distance (km) Brightness Sun altitude
Rises 05:31:32 0° 204° (SSW) 3,265 6.7 -9.4°
Reaches altitude 10° 05:33:55 10° 204° (SSW) 2,339 6.0 -9.1°
Maximum altitude 05:39:15 85° 294° (WNW) 792 3.5 -8.3°
Drops below altitude 10° 05:44:36 10° 23° (NNE) 2,342 6.0 -7.5°
Sets 05:46:59 0° 24° (NNE) 3,270 6.8 -7.1°
